Regional Weather Roundup
Issued by NWS

Home | Current Version | Previous Version | Graphics & Text | Print | Product List | Glossary Off
Versions: 1 2 3 4 5 6 7 8 9 10 11 12 13 14 15 16 17 18 19 20 21 22 23 24 25 26 27 28 29 30 31 32 33 34 35 36 37 38 39 40 41 42 43 44 45 46 47 48 49 50

000
ASUS43 KLSX 050407
RWRMO

WEATHER SUMMARY FOR MISSOURI
NATIONAL WEATHER SERVICE SPRINGFIELD MO
1100 PM CDT SAT JUL 04 2015

NOTE: "FAIR" INDICATES FEW OR NO CLOUDS BELOW 12,000 FEET WITH NO
       SIGNIFICANT WEATHER AND/OR OBSTRUCTIONS TO VISIBILITY.
       CURRENT SKY AND/OR WEATHER CONDITIONS ARE NOT AVAILABLE FOR
       CHILLICOTHE AND FARMINGTON.

MOZ001>031-035>038-043-044-053-054-050500-
...NORTHERN AND WESTERN MISSOURI...

CITY           SKY/WX    TMP DP  RH WIND       PRES   REMARKS
KANSAS CTY INT CLEAR     71  64  78 SE6       29.99R
KANSAS C DTWN  CLEAR     76  64  66 SE5       29.98R HAZE
LEE`S SUMMIT   CLEAR     73  64  73 SE3       30.00R HAZE
ST JOSEPH      CLEAR     72  64  76 SE7       29.98R
CHILLICOTHE      N/A     68  65  90 CALM      30.00R
KIRKSVILLE     PTCLDY    65  61  87 S3        30.02R

$$
MOZ066>068-077>081-088>096-101>105-050500-
...SOUTHWEST MISSOURI...

CITY           SKY/WX    TMP DP  RH WIND       PRES   REMARKS
SPRINGFIELD    PTCLDY    73  68  84 SE7       30.01R HAZE
JOPLIN         CLEAR     74  67  78 E6        29.99R HAZE

$$
MOZ032>034-039>042-045>050-055>058-069>072-050500-
...CENTRAL MISSOURI...

CITY           SKY/WX    TMP DP  RH WIND       PRES   REMARKS
COLUMBIA       PTCLDY    72  65  78 SE6       30.02R
JEFFERSON CITY PTCLDY    71  66  84 E3        30.01R
ROLLA          CLEAR     69  66  90 SE7       30.03R
SEDALIA        PTCLDY    72  65  78 SE6       30.02R
WHITEMAN AFB   CLEAR     70  66  87 SE3       29.99R
WARRENSBURG    CLEAR     70  63  78 SE5       29.99R
OSAGE BEACH    MOCLDY    72  64  78 CALM      30.02R

$$
MOZ051-052-059>065-050500-
...EAST CENTRAL MISSOURI...

CITY           SKY/WX    TMP DP  RH WIND       PRES   REMARKS
ST LOUIS INTL  PTCLDY    73  63  68 E5        30.03R HAZE
SPIRIT OF STL  CLEAR     69  66  90 CALM      30.01R FOG
ST CHARLES     CLEAR     71  66  84 CALM      30.01R

$$
MOZ072>076-082>087-097>100-106>115-050500-
...SOUTH CENTRAL AND SOUTHEAST MISSOURI...

CITY           SKY/WX    TMP DP  RH WIND       PRES   REMARKS
CAPE GIRARDEAU MOCLDY    71  69  93 CALM      30.03
FARMINGTON     CLEAR     70  66  88 CALM      30.08R
POPLAR BLUFF   PTCLDY    73  71  93 CALM      30.01R FOG
WEST PLAINS    MOCLDY    72  68  87 CALM      30.06R

$$



USA.gov is the U.S. government's official web portal to all federal, state and local government web resources and services.